Time,TemperatureF,DewpointF,PressureIn,WindDirection,WindDirectionDegrees,WindSpeedMPH,WindSpeedGustMPH,Humidity,HourlyPrecipIn,Conditions,Clouds,dailyrainin,SoftwareType,DateUTC
2013-03-19 00:02:00,23.0,15.0,29.90,West,259,18.0,-999.0,71,-99.99,,,-99.99,,2013-03-19 05:02:00,
2013-03-19 00:12:00,23.0,15.0,29.90,West,259,18.0,-999.0,71,-99.99,,,-99.99,,2013-03-19 05:12:00,
2013-03-19 00:22:00,22.0,14.0,29.90,West,277,21.0,-999.0,71,-99.99,,,-99.99,,2013-03-19 05:22:00,
2013-03-19 00:32:00,22.0,14.0,29.90,WNW,286,18.0,-999.0,72,-99.99,,,-99.99,,2013-03-19 05:32:00,
2013-03-19 00:42:00,22.0,14.0,29.90,WNW,286,18.0,-999.0,72,-99.99,,,-99.99,,2013-03-19 05:42:00,
2013-03-19 00:52:00,22.0,14.0,29.90,WNW,286,18.0,-999.0,72,-99.99,,,-99.99,,2013-03-19 05:52:00,
2013-03-19 01:02:00,21.0,14.0,29.90,WSW,258,14.0,-999.0,74,-99.99,,,-99.99,,2013-03-19 06:02:00,
2013-03-19 01:12:00,21.0,14.0,29.90,WSW,258,14.0,-999.0,74,-99.99,,,-99.99,,2013-03-19 06:12:00,
2013-03-19 01:22:00,21.0,14.0,29.90,West,277,15.0,-999.0,75,-99.99,,,-99.99,,2013-03-19 06:22:00,
2013-03-19 01:32:00,21.0,14.0,29.89,WNW,297,14.0,-999.0,75,-99.99,,,-99.99,,2013-03-19 06:32:00,
2013-03-19 01:42:00,21.0,14.0,29.89,WNW,297,14.0,-999.0,75,-99.99,,,-99.99,,2013-03-19 06:42:00,
2013-03-19 01:52:00,21.0,14.0,29.89,West,272,16.0,-999.0,74,-99.99,,,-99.99,,2013-03-19 06:52:00,
2013-03-19 02:02:00,21.0,14.0,29.89,West,271,13.0,-999.0,75,-99.99,,,-99.99,,2013-03-19 07:02:00,
2013-03-19 02:12:00,21.0,14.0,29.89,West,271,13.0,-999.0,75,-99.99,,,-99.99,,2013-03-19 07:12:00,
2013-03-19 02:21:00,21.0,14.0,29.89,West,259,14.0,-999.0,74,-99.99,,,-99.99,,2013-03-19 07:21:00,
2013-03-19 02:32:00,20.0,13.0,29.89,WNW,286,12.0,-999.0,74,-99.99,,,-99.99,,2013-03-19 07:32:00,
2013-03-19 02:42:00,20.0,13.0,29.89,WNW,286,12.0,-999.0,74,-99.99,,,-99.99,,2013-03-19 07:42:00,
2013-03-19 02:52:00,20.0,13.0,29.91,West,269,14.0,-999.0,75,-99.99,,,-99.99,,2013-03-19 07:52:00,
2013-03-19 03:03:00,20.0,14.0,29.91,West,260,15.0,-999.0,76,-99.99,,,-99.99,,2013-03-19 08:03:00,
2013-03-19 03:12:00,20.0,14.0,29.91,West,260,15.0,-999.0,76,-99.99,,,-99.99,,2013-03-19 08:12:00,
2013-03-19 03:22:00,20.0,13.0,29.91,West,263,15.0,-999.0,75,-99.99,,,-99.99,,2013-03-19 08:22:00,
2013-03-19 03:32:00,20.0,14.0,29.91,West,262,13.0,-999.0,78,-99.99,,,-99.99,,2013-03-19 08:32:00,
2013-03-19 03:42:00,20.0,14.0,29.91,West,262,13.0,-999.0,78,-99.99,,,-99.99,,2013-03-19 08:42:00,
2013-03-19 03:52:00,20.0,14.0,29.92,West,277,15.0,-999.0,76,-99.99,,,-99.99,,2013-03-19 08:52:00,
2013-03-19 04:02:00,19.0,13.0,29.93,West,259,15.0,-999.0,76,-99.99,,,-99.99,,2013-03-19 09:02:00,
2013-03-19 04:12:00,19.0,13.0,29.93,West,259,15.0,-999.0,76,-99.99,,,-99.99,,2013-03-19 09:12:00,
2013-03-19 04:22:00,19.0,13.0,29.92,West,275,14.0,-999.0,76,-99.99,,,-99.99,,2013-03-19 09:22:00,
2013-03-19 04:32:00,19.0,13.0,29.93,West,265,14.0,-999.0,77,-99.99,,,-99.99,,2013-03-19 09:32:00,
2013-03-19 04:42:00,19.0,13.0,29.93,West,265,14.0,-999.0,77,-99.99,,,-99.99,,2013-03-19 09:42:00,
2013-03-19 04:52:00,19.0,13.0,29.93,WSW,255,15.0,-999.0,76,-99.99,,,-99.99,,2013-03-19 09:52:00,
2013-03-19 05:03:00,19.0,13.0,29.92,West,279,14.0,-999.0,76,-99.99,,,-99.99,,2013-03-19 10:03:00,
2013-03-19 05:12:00,19.0,13.0,29.92,West,279,14.0,-999.0,76,-99.99,,,-99.99,,2013-03-19 10:12:00,
2013-03-19 05:23:00,19.0,13.0,29.93,WSW,252,15.0,-999.0,76,-99.99,,,-99.99,,2013-03-19 10:23:00,
2013-03-19 05:32:00,19.0,12.0,29.94,West,269,16.0,-999.0,75,-99.99,,,-99.99,,2013-03-19 10:32:00,
2013-03-19 05:42:00,19.0,12.0,29.94,West,269,16.0,-999.0,75,-99.99,,,-99.99,,2013-03-19 10:42:00,
2013-03-19 05:52:00,18.0,12.0,29.94,West,270,15.0,-999.0,76,-99.99,,,-99.99,,2013-03-19 10:52:00,
2013-03-19 06:02:00,18.0,11.0,29.94,WSW,257,13.0,-999.0,75,-99.99,,,-99.99,,2013-03-19 11:02:00,
2013-03-19 06:12:00,18.0,11.0,29.94,WSW,257,13.0,-999.0,75,-99.99,,,-99.99,,2013-03-19 11:12:00,
2013-03-19 06:22:00,18.0,11.0,29.96,West,274,12.0,-999.0,75,-99.99,,,-99.99,,2013-03-19 11:22:00,
2013-03-19 06:32:00,18.0,10.0,29.97,WSW,253,16.0,-999.0,71,-99.99,,,-99.99,,2013-03-19 11:32:00,
2013-03-19 06:42:00,18.0,10.0,29.97,WSW,253,16.0,-999.0,71,-99.99,,,-99.99,,2013-03-19 11:42:00,
2013-03-19 06:52:00,18.0,11.0,29.98,West,261,14.0,-999.0,74,-99.99,,,-99.99,,2013-03-19 11:52:00,
2013-03-19 07:02:00,18.0,11.0,29.99,West,278,14.0,-999.0,73,-99.99,,,-99.99,,2013-03-19 12:02:00,
2013-03-19 07:12:00,18.0,11.0,29.99,West,278,14.0,-999.0,73,-99.99,,,-99.99,,2013-03-19 12:12:00,
2013-03-19 07:22:00,17.0,10.0,29.99,WSW,258,14.0,-999.0,73,-99.99,,,-99.99,,2013-03-19 12:22:00,
2013-03-19 07:33:00,17.0,10.0,30.00,WNW,283,13.0,-999.0,73,-99.99,,,-99.99,,2013-03-19 12:33:00,
2013-03-19 07:42:00,17.0,10.0,30.00,WNW,283,13.0,-999.0,73,-99.99,,,-99.99,,2013-03-19 12:42:00,
2013-03-19 07:52:00,17.0,10.0,30.00,West,280,13.0,-999.0,73,-99.99,,,-99.99,,2013-03-19 12:52:00,
2013-03-19 08:02:00,17.0,10.0,30.01,WNW,286,13.0,-999.0,73,-99.99,,,-99.99,,2013-03-19 13:02:00,
2013-03-19 08:12:00,17.0,10.0,30.01,WNW,286,13.0,-999.0,73,-99.99,,,-99.99,,2013-03-19 13:12:00,
2013-03-19 08:22:00,18.0,11.0,30.01,West,260,14.0,-999.0,72,-99.99,,,-99.99,,2013-03-19 13:22:00,
2013-03-19 08:32:00,18.0,11.0,30.01,West,262,16.0,-999.0,72,-99.99,,,-99.99,,2013-03-19 13:32:00,
2013-03-19 08:42:00,18.0,11.0,30.01,West,262,16.0,-999.0,72,-99.99,,,-99.99,,2013-03-19 13:42:00,
2013-03-19 08:52:00,18.0,10.0,30.02,West,281,15.0,-999.0,71,-99.99,,,-99.99,,2013-03-19 13:52:00,
2013-03-19 09:02:00,19.0,13.0,30.02,West,259,15.0,-999.0,78,-99.99,,,-99.99,,2013-03-19 14:02:00,
2013-03-19 09:12:00,19.0,13.0,30.02,West,259,15.0,-999.0,78,-99.99,,,-99.99,,2013-03-19 14:12:00,
2013-03-19 09:22:00,19.0,11.0,30.03,West,275,14.0,-999.0,72,-99.99,,,-99.99,,2013-03-19 14:22:00,
2013-03-19 09:32:00,19.0,11.0,30.03,West,275,14.0,-999.0,72,-99.99,,,-99.99,,2013-03-19 14:32:00,
2013-03-19 09:42:00,19.0,11.0,30.03,West,275,14.0,-999.0,72,-99.99,,,-99.99,,2013-03-19 14:42:00,
2013-03-19 09:52:00,20.0,12.0,30.03,West,266,17.0,-999.0,71,-99.99,,,-99.99,,2013-03-19 14:52:00,
2013-03-19 10:02:00,20.0,12.0,30.03,West,274,18.0,-999.0,70,-99.99,,,-99.99,,2013-03-19 15:02:00,
2013-03-19 10:12:00,20.0,12.0,30.03,West,274,18.0,-999.0,70,-99.99,,,-99.99,,2013-03-19 15:12:00,
2013-03-19 10:22:00,21.0,12.0,30.05,West,259,15.0,-999.0,69,-99.99,,,-99.99,,2013-03-19 15:22:00,
2013-03-19 10:34:00,21.0,12.0,30.05,West,259,15.0,-999.0,69,-99.99,,,-99.99,,2013-03-19 15:34:00,
2013-03-19 10:43:00,21.0,12.0,30.05,West,259,15.0,-999.0,69,-99.99,,,-99.99,,2013-03-19 15:43:00,
2013-03-19 10:53:00,22.0,14.0,30.06,WSW,255,17.0,-999.0,70,-99.99,,,-99.99,,2013-03-19 15:53:00,
2013-03-19 11:04:00,23.0,15.0,30.07,West,271,15.0,-999.0,70,-99.99,,,-99.99,,2013-03-19 16:04:00,
2013-03-19 11:13:00,23.0,15.0,30.07,West,271,15.0,-999.0,70,-99.99,,,-99.99,,2013-03-19 16:13:00,
2013-03-19 11:24:00,23.0,15.0,30.08,West,261,15.0,-999.0,70,-99.99,,,-99.99,,2013-03-19 16:24:00,
2013-03-19 11:34:00,23.0,15.0,30.09,WNW,290,18.0,-999.0,70,-99.99,,,-99.99,,2013-03-19 16:34:00,
2013-03-19 11:44:00,23.0,15.0,30.09,WNW,290,18.0,-999.0,70,-99.99,,,-99.99,,2013-03-19 16:44:00,
2013-03-19 11:53:00,24.0,15.0,30.09,WSW,254,16.0,-999.0,68,-99.99,,,-99.99,,2013-03-19 16:53:00,
2013-03-19 12:03:00,25.0,16.0,30.09,West,263,16.0,-999.0,69,-99.99,,,-99.99,,2013-03-19 17:03:00,
2013-03-19 12:13:00,25.0,16.0,30.09,West,263,16.0,-999.0,69,-99.99,,,-99.99,,2013-03-19 17:13:00,
2013-03-19 12:23:00,25.0,17.0,30.09,West,261,15.0,-999.0,71,-99.99,,,-99.99,,2013-03-19 17:23:00,
2013-03-19 12:34:00,25.0,16.0,30.10,WNW,292,17.0,-999.0,68,-99.99,,,-99.99,,2013-03-19 17:34:00,
2013-03-19 12:44:00,25.0,16.0,30.10,WNW,292,17.0,-999.0,68,-99.99,,,-99.99,,2013-03-19 17:44:00,
2013-03-19 12:52:00,25.0,16.0,30.10,WNW,292,17.0,-999.0,68,-99.99,,,-99.99,,2013-03-19 17:52:00,
2013-03-19 13:03:00,27.0,18.0,30.10,West,268,15.0,-999.0,68,-99.99,,,-99.99,,2013-03-19 18:03:00,
2013-03-19 13:13:00,27.0,18.0,30.10,West,268,15.0,-999.0,68,-99.99,,,-99.99,,2013-03-19 18:13:00,
2013-03-19 13:23:00,27.0,19.0,30.11,West,277,16.0,-999.0,70,-99.99,,,-99.99,,2013-03-19 18:23:00,
2013-03-19 13:33:00,28.0,20.0,30.11,West,262,16.0,-999.0,72,-99.99,,,-99.99,,2013-03-19 18:33:00,
2013-03-19 13:43:00,28.0,20.0,30.11,West,262,16.0,-999.0,72,-99.99,,,-99.99,,2013-03-19 18:43:00,
2013-03-19 13:53:00,28.0,18.0,30.12,West,279,15.0,-999.0,66,-99.99,,,-99.99,,2013-03-19 18:53:00,
2013-03-19 14:02:00,29.0,20.0,30.12,West,269,15.0,-999.0,68,-99.99,,,-99.99,,2013-03-19 19:02:00,
2013-03-19 14:12:00,29.0,20.0,30.12,West,269,15.0,-999.0,68,-99.99,,,-99.99,,2013-03-19 19:12:00,
2013-03-19 14:22:00,30.0,21.0,30.12,West,264,14.0,-999.0,69,-99.99,,,-99.99,,2013-03-19 19:22:00,
2013-03-19 14:33:00,30.0,20.0,30.11,West,263,14.0,-999.0,66,-99.99,,,-99.99,,2013-03-19 19:33:00,
2013-03-19 14:42:00,30.0,20.0,30.11,West,263,14.0,-999.0,66,-99.99,,,-99.99,,2013-03-19 19:42:00,
2013-03-19 14:52:00,30.0,19.0,30.11,West,265,15.0,-999.0,64,-99.99,,,-99.99,,2013-03-19 19:52:00,
2013-03-19 15:02:00,31.0,21.0,30.11,WSW,242,14.0,-999.0,66,-99.99,,,-99.99,,2013-03-19 20:02:00,
2013-03-19 15:12:00,32.0,22.0,30.11,North,360,12.0,-999.0,66,-99.99,,,-99.99,,2013-03-19 20:12:00,
2013-03-19 15:22:00,32.0,22.0,30.11,North,360,12.0,-999.0,66,-99.99,,,-99.99,,2013-03-19 20:22:00,
2013-03-19 15:32:00,32.0,20.0,30.11,WSW,256,13.0,-999.0,62,-99.99,,,-99.99,,2013-03-19 20:32:00,
2013-03-19 15:42:00,32.0,20.0,30.11,WSW,256,13.0,-999.0,62,-99.99,,,-99.99,,2013-03-19 20:42:00,
2013-03-19 15:52:00,32.0,20.0,30.11,West,280,13.0,-999.0,62,-99.99,,,-99.99,,2013-03-19 20:52:00,
2013-03-19 16:02:00,33.0,20.0,30.11,WNW,291,12.0,-999.0,58,-99.99,,,-99.99,,2013-03-19 21:02:00,
2013-03-19 16:12:00,33.0,20.0,30.11,WNW,291,12.0,-999.0,58,-99.99,,,-99.99,,2013-03-19 21:12:00,
2013-03-19 16:22:00,33.0,20.0,30.11,West,263,14.0,-999.0,58,-99.99,,,-99.99,,2013-03-19 21:22:00,
2013-03-19 16:33:00,33.0,19.0,30.12,West,269,15.0,-999.0,56,-99.99,,,-99.99,,2013-03-19 21:33:00,
2013-03-19 16:43:00,33.0,19.0,30.12,West,269,15.0,-999.0,56,-99.99,,,-99.99,,2013-03-19 21:43:00,
2013-03-19 16:52:00,34.0,21.0,30.12,West,259,12.0,-999.0,59,-99.99,,,-99.99,,2013-03-19 21:52:00,
2013-03-19 17:03:00,34.0,22.0,30.13,WSW,253,16.0,-999.0,61,-99.99,,,-99.99,,2013-03-19 22:03:00,
2013-03-19 17:12:00,34.0,22.0,30.13,WSW,253,16.0,-999.0,61,-99.99,,,-99.99,,2013-03-19 22:12:00,
2013-03-19 17:23:00,34.0,20.0,30.13,West,268,15.0,-999.0,56,-99.99,,,-99.99,,2013-03-19 22:23:00,
2013-03-19 17:33:00,34.0,22.0,30.13,West,261,13.0,-999.0,62,-99.99,,,-99.99,,2013-03-19 22:33:00,
2013-03-19 17:43:00,34.0,22.0,30.13,West,261,13.0,-999.0,62,-99.99,,,-99.99,,2013-03-19 22:43:00,
2013-03-19 17:52:00,34.0,20.0,30.14,West,272,14.0,-999.0,56,-99.99,,,-99.99,,2013-03-19 22:52:00,
2013-03-19 18:02:00,33.0,21.0,30.14,WSW,254,12.0,-999.0,60,-99.99,,,-99.99,,2013-03-19 23:02:00,
2013-03-19 18:12:00,33.0,21.0,30.14,WSW,254,12.0,-999.0,60,-99.99,,,-99.99,,2013-03-19 23:12:00,
2013-03-19 18:22:00,32.0,21.0,30.14,West,275,12.0,-999.0,63,-99.99,,,-99.99,,2013-03-19 23:22:00,
2013-03-19 18:32:00,32.0,20.0,30.14,West,261,10.0,-999.0,60,-99.99,,,-99.99,,2013-03-19 23:32:00,
2013-03-19 18:42:00,32.0,20.0,30.14,West,261,10.0,-999.0,60,-99.99,,,-99.99,,2013-03-19 23:42:00,
2013-03-19 18:52:00,33.0,21.0,30.14,WNW,284,12.0,-999.0,60,-99.99,,,-99.99,,2013-03-19 23:52:00,
2013-03-19 19:03:00,32.0,20.0,30.14,West,266,11.0,-999.0,62,-99.99,,,-99.99,,2013-03-20 00:03:00,
2013-03-19 19:13:00,32.0,20.0,30.14,West,266,11.0,-999.0,62,-99.99,,,-99.99,,2013-03-20 00:13:00,
2013-03-19 19:22:00,32.0,21.0,30.14,West,280,8.0,-999.0,63,-99.99,,,-99.99,,2013-03-20 00:22:00,
2013-03-19 19:33:00,31.0,20.0,30.14,West,271,9.0,-999.0,64,-99.99,,,-99.99,,2013-03-20 00:33:00,
2013-03-19 19:42:00,31.0,20.0,30.14,West,271,9.0,-999.0,64,-99.99,,,-99.99,,2013-03-20 00:42:00,
2013-03-19 19:52:00,31.0,21.0,30.15,West,272,7.0,-999.0,65,-99.99,,,-99.99,,2013-03-20 00:52:00,
2013-03-19 20:03:00,30.0,21.0,30.15,West,263,8.0,-999.0,68,-99.99,,,-99.99,,2013-03-20 01:03:00,
2013-03-19 20:12:00,30.0,21.0,30.15,West,263,8.0,-999.0,68,-99.99,,,-99.99,,2013-03-20 01:12:00,
2013-03-19 20:22:00,30.0,22.0,30.15,West,264,7.0,-999.0,72,-99.99,,,-99.99,,2013-03-20 01:22:00,
2013-03-19 20:32:00,30.0,22.0,30.15,West,267,7.0,-999.0,72,-99.99,,,-99.99,,2013-03-20 01:32:00,
2013-03-19 20:42:00,30.0,22.0,30.15,West,267,7.0,-999.0,72,-99.99,,,-99.99,,2013-03-20 01:42:00,
2013-03-19 20:53:00,30.0,22.0,30.16,WNW,294,6.0,-999.0,73,-99.99,,,-99.99,,2013-03-20 01:53:00,
2013-03-19 21:02:00,30.0,22.0,30.16,West,266,6.0,-999.0,73,-99.99,,,-99.99,,2013-03-20 02:02:00,
2013-03-19 21:12:00,30.0,22.0,30.16,West,266,6.0,-999.0,73,-99.99,,,-99.99,,2013-03-20 02:12:00,
2013-03-19 21:22:00,29.0,22.0,30.16,West,263,6.0,-999.0,74,-99.99,,,-99.99,,2013-03-20 02:22:00,
2013-03-19 21:32:00,29.0,22.0,30.16,West,268,6.0,-999.0,75,-99.99,,,-99.99,,2013-03-20 02:32:00,
2013-03-19 21:42:00,29.0,22.0,30.16,West,268,6.0,-999.0,75,-99.99,,,-99.99,,2013-03-20 02:42:00,
2013-03-19 21:53:00,29.0,21.0,30.16,WNW,291,10.0,-999.0,71,-99.99,,,-99.99,,2013-03-20 02:53:00,
2013-03-19 22:02:00,29.0,21.0,30.16,West,263,9.0,-999.0,71,-99.99,,,-99.99,,2013-03-20 03:02:00,
2013-03-19 22:12:00,29.0,21.0,30.16,West,276,9.0,-999.0,72,-99.99,,,-99.99,,2013-03-20 03:12:00,
2013-03-19 22:22:00,29.0,21.0,30.16,West,276,9.0,-999.0,72,-99.99,,,-99.99,,2013-03-20 03:22:00,
2013-03-19 22:33:00,28.0,20.0,30.16,WNW,292,10.0,-999.0,72,-99.99,,,-99.99,,2013-03-20 03:33:00,
2013-03-19 22:42:00,28.0,20.0,30.16,WNW,292,10.0,-999.0,72,-99.99,,,-99.99,,2013-03-20 03:42:00,
2013-03-19 22:53:00,28.0,20.0,30.16,WNW,284,10.0,-999.0,73,-99.99,,,-99.99,,2013-03-20 03:53:00,
2013-03-19 23:03:00,28.0,21.0,30.15,West,275,8.0,-999.0,74,-99.99,,,-99.99,,2013-03-20 04:03:00,
2013-03-19 23:12:00,28.0,21.0,30.15,West,275,8.0,-999.0,74,-99.99,,,-99.99,,2013-03-20 04:12:00,
2013-03-19 23:23:00,27.0,20.0,30.15,WNW,285,10.0,-999.0,74,-99.99,,,-99.99,,2013-03-20 04:23:00,
2013-03-19 23:32:00,27.0,20.0,30.15,WNW,296,8.0,-999.0,73,-99.99,,,-99.99,,2013-03-20 04:32:00,
2013-03-19 23:43:00,27.0,20.0,30.15,WNW,296,8.0,-999.0,73,-99.99,,,-99.99,,2013-03-20 04:43:00,
2013-03-19 23:53:00,27.0,19.0,30.14,West,273,9.0,-999.0,72,-99.99,,,-99.99,,2013-03-20 04:53:00,